Location: Carrer del Canonge
(41.4901°N, 2.2931°E)
Time: 10:11:50
(UTC+00:00)

Daily predictions for brighter satellites

Satellite Brightness Start Highest point End
(mag) Time Altitude Azimuth Time Altitude Azimuth Time Altitude Azimuth
CZ-2D R/B 3.3 18:15:51 10° SSE 18:19:44 87° ENE 18:23:38 10° N
CSL-04 Debris 4.4 18:17:18 10° SE 18:22:28 50° ENE 18:27:39 10° N
USA 116 3.7 18:21:09 10° NNE 18:24:32 50° E 18:28:17 10° S
GP-B 3.2 18:21:48 10° N 18:26:16 85° W 18:30:41 10° S
YAOGAN 1 2.5 18:22:32 10° SSE 18:26:50 71° ENE 18:31:09 10° N
Cosmos 1378 4.3 18:24:13 10° NNW 18:27:48 48° W 18:31:22 10° SSW
HJ-1C 4.0 18:26:22 10° SE 18:29:21 34° ENE 18:32:22 10° N
Cosmos 1898 Rocket 3.4 18:24:24 10° SSW 18:29:34 81° ESE 18:34:46 10° NNE
Cosmos 1603 3.8 18:24:54 10° NNW 18:30:32 60° ENE 18:36:04 10° SE
CSL-04 Rocket 3.8 18:26:54 10° SSE 18:32:10 58° ENE 18:37:32 10° N
Okean 2 3.4 18:31:45 10° N 18:35:56 68° E 18:40:03 10° SSE
Cosmos 858 Rocket 4.4 18:37:34 10° SSW 18:42:47 76° ESE 18:48:00 10° NNE
USA 234 3.9 18:38:42 10° ENE 18:44:29 32° SE 18:50:13 10° S
Cosmos 1782 Rocket 3.5 18:42:43 10° S 18:47:07 84° E 18:51:34 10° N
Cosmos 807 4.1 18:44:22 10° S 18:47:21 77° E 18:50:49 10° N
Cosmos 2233 Rocket 4.3 18:41:58 10° SSW 18:48:12 73° W 18:54:25 10° N
Cosmos 1975 3.2 18:44:09 10° SSW 18:48:13 72° W 18:52:18 10° N
Cosmos 372 Rocket 4.4 18:43:55 10° S 18:48:47 40° ESE 18:53:39 10° NE
CZ-4 R/B 2.4 18:44:53 10° S 18:49:00 52° W 18:53:07 10° NNW
USA 186 3.0 18:48:48 18° ESE 18:49:58 22° ENE 18:52:30 10° NNE
Cosmos 1025 Rocket 4.0 18:49:55 10° NNE 18:53:40 27° ENE 18:56:09 17° ESE
Cosmos 2112 Rocket 4.5 18:52:42 10° NNW 18:57:51 63° WSW 19:03:00 10° S
Cosmos 1937 Rocket 3.7 18:54:00 10° SSW 18:59:15 77° WNW 19:04:31 10° NNE
OBJECT-B 3.1 19:01:23 12° NE 19:01:23 12° NE 19:02:01 10° NE
Cosmos 2034 Rocket 4.5 18:55:01 10° SSE 19:00:47 38° E 19:06:35 10° NNE
Cosmos 1680 Rocket 4.5 18:56:37 10° NNW 19:01:38 49° WSW 19:06:40 10° S
CZ-2C R/B 2.2 19:00:30 10° SW 19:03:29 25° S 19:04:39 21° SE
FREGAT/IRIS 4.3 19:05:31 16° NE 19:05:31 16° NE 19:06:31 10° NNE
MOS 1 Rocket 3.0 19:01:10 10° NNE 19:05:40 84° ESE 19:09:57 10° S
Cosmos 1842 4.2 19:04:45 10° NNW 19:08:30 49° W 19:12:14 10° S
Cosmos 1674 4.4 19:07:42 10° NNE 19:09:42 17° ENE 19:09:42 17° ENE
Cosmos 1975 Rocket 3.3 19:09:15 10° NNW 19:13:34 68° W 19:17:50 10° S
NOSS 2-2 (E) 3.7 19:12:03 10° SW 19:15:29 56° NW 19:19:15 10° NNE
Cosmos 2084 Rocket 3.9 19:12:38 10° NW 19:17:04 65° WSW 19:20:30 17° SSE
In-Cosmos 22 4.2 19:12:26 10° N 19:17:37 53° ENE 19:21:24 18° SSE
Resurs 01 Rocket 3.3 19:19:16 17° ENE 19:19:16 17° ENE 19:21:49 10° NNE
H-2A R/B 2.3 19:14:09 10° S 19:19:02 65° WSW 19:24:03 10° NNW
ATLAS 2AS CENTAUR R/B 4.3 19:14:20 10° SSE 19:24:48 12° ENE 19:25:31 10° ENE
ARGOS 3.1 19:14:50 10° SSE 19:20:11 86° WSW 19:25:36 10° NNW
SJ-6B 2.9 19:21:47 38° ESE 19:22:38 46° ENE 19:26:14 10° N
Cosmos 1707 2.5 19:19:13 10° N 19:23:04 83° E 19:25:43 19° S
NOSS 2-2 (D) 3.6 19:20:28 10° SW 19:23:55 60° NW 19:27:40 10° NNE
Sich 1 Rocket 4.1 19:20:55 10° SSW 19:25:20 63° W 19:29:51 10° N
CZ-2C R/B 2.7 19:20:46 10° NNE 19:26:16 63° E 19:31:48 10° S
MOS 1 4.3 19:23:05 20° SE 19:27:04 60° ENE 19:32:40 10° N
Cosmos 1174 4.4 19:22:47 10° SSW 19:27:23 60° ESE 19:33:14 10° NE
Cosmos 1844 4.0 19:27:09 10° S 19:32:28 41° ESE 19:37:45 10° NE
Cosmos 1048 Rocket 4.4 19:27:42 10° N 19:32:47 44° ENE 19:34:10 36° ESE
CENTAUR R/B 3.8 19:27:13 10° NNW 19:34:38 39° NE 19:38:32 27° E
SL-08 RB Rocket 3.8 19:32:47 15° S 19:36:39 79° WSW 19:41:14 10° NNW
Cosmos 2263 Rocket 4.0 19:32:29 10° WSW 19:37:25 32° WNW 19:42:25 10° N
Cosmos 2285 Rocket 4.2 19:32:54 10° S 19:38:46 43° ESE 19:44:42 10° NNE
Milstar 3 Cent rocket 3.9 19:36:25 10° SSW 19:39:32 15° S 19:39:33 15° S
ATLAS 3B R/B 4.5 19:35:28 10° NNW 19:39:52 18° NNE 19:42:49 14° ENE
ISS -3.1 19:37:10 10° WSW 19:40:28 54° NNW 19:41:14 42° NNE
Abrixas rocket 4.0 19:40:13 10° NW 19:42:24 20° N 19:42:31 20° N
USA 238 DEB 4.1 19:35:39 10° NNW 19:42:42 53° NE 19:45:37 35° ESE
DELTA 2 R/B (1) 4.2 19:37:30 10° W 19:42:44 43° SSW 19:44:35 32° SSE
USA 238 4.1 19:35:45 10° NNW 19:42:48 53° NE 19:45:43 35° ESE
Cosmos 1844 Rocket 2.5 19:38:52 10° S 19:44:21 65° ESE 19:49:53 10° NNE
Okean 2 Rocket 3.6 19:41:01 10° SSW 19:45:28 60° W 19:49:56 10° N
Cosmos 1464 Rocket 4.3 19:42:58 10° SSW 19:49:01 65° W 19:55:09 10° N
Okean 1 Rocket 4.1 19:51:22 33° NE 19:51:22 33° NE 19:54:09 10° NNE
IRS-1A Rocket 4.5 19:46:47 17° S 19:51:32 77° WSW 19:57:26 10° NNW
Lacrosse 5 rocket 4.2 19:49:55 10° NNW 19:51:36 12° N 19:53:19 10° NNE
Ariane Rocket 3.2 19:49:58 22° S 19:53:18 69° WSW 19:58:23 10° NNW
Meteor 1-15 Rocket 4.1 19:51:14 10° S 19:56:49 78° E 20:02:31 10° NNE
Resurs 1-3 3.7 19:57:58 61° NE 19:57:58 61° NE 20:01:59 10° N
Cosmos 1092 Rocket 4.0 19:53:01 10° N 19:59:05 59° E 20:00:15 51° ESE
Cosmos 2298 Rocket 4.4 19:57:50 10° SSW 20:03:07 65° WNW 20:08:26 10° NNE
SPOT 3 Rocket 3.4 20:03:38 65° E 20:03:56 67° ENE 20:09:03 10° N
Cosmos 494 Rocket 4.2 20:00:40 10° N 20:05:36 54° ENE 20:05:36 54° ENE
MetOp-A 4.3 20:03:48 33° S 20:06:14 70° WSW 20:11:36 10° NNW
Cosmos 2026 Rocket 4.1 20:00:26 10° N 20:06:38 51° ENE 20:06:56 51° E
Meteor 2-13 Rocket 4.3 20:01:40 10° N 20:07:50 72° E 20:09:01 57° SE
Cosmos 1833 Rocket 4.5 20:04:38 10° N 20:07:47 17° NE 20:07:47 17° NE
NOSS 3-2 (A) 4.0 20:03:30 10° NNW 20:11:11 81° NE 20:13:57 47° SE
Cosmos 1536 Rocket 4.4 20:13:19 10° NNW 20:17:35 47° W 20:18:27 41° SW
Cosmos 1867 4.4 20:12:36 10° NW 20:17:46 44° WSW 20:19:17 35° SSW
Cosmos 1428 Rocket 4.5 20:12:48 10° N 20:18:51 60° ENE 20:18:51 60° ENE
USA 234 3.4 20:21:15 10° NE 20:27:47 72° NW 20:34:18 10° WSW
Meteor 2-5 Rocket 3.7 20:25:15 10° N 20:30:35 80° N 20:30:35 80° N
OBJECT-B 3.7 20:34:35 17° NW 20:34:35 17° NW 20:35:33 10° NNW
Cosmos 1125 Rocket 4.5 20:38:59 10° SW 20:44:03 46° WNW 20:49:11 10° N
NOSS 3-2 (C) 3.9 20:37:39 10° NW 20:45:20 84° NE 20:46:11 74° ESE
BREEZE-M DEB (TANK) 4.2 20:42:04 10° WNW 20:46:22 58° SSW 20:47:13 55° S
Cosmos 2082 Rocket 4.1 20:44:14 10° N 20:46:33 18° NNE 20:46:33 18° NNE
Resurs 01 Rocket 3.4 20:56:51 30° NW 20:56:51 30° NW 20:59:21 10° NNW
COSMOS 2406 4.4 20:50:52 10° NNW 20:54:21 35° N 20:54:21 35° N
Meteor 1-24 Rocket 4.4 20:52:14 10° NNW 20:56:23 51° NNW 20:56:23 51° NNW
ATLAS 2AS CENTAUR R/B 3.3 21:02:05 10° SW 21:11:59 57° NNE 21:18:00 10° NE
CENTAUR R/B 3.4 21:17:45 10° NW 21:25:44 65° WSW 21:25:44 65° WSW
ATLAS 3B R/B 3.5 21:25:15 10° NNW 21:30:03 44° N 21:30:03 44° N
